<?xml version="1.0"?>
<gpx xmlns="http://www.topografix.com/GPX/1/1" xmlns:xsi="http://www.w3.org/2001/XMLSchema-instance" version="1.1" creator="GPX RubyGem 1.0.0 -- http://dougfales.github.io/gpx/" xsi:schemaLocation="http://www.topografix.com/GPX/1/1 http://www.topografix.com/GPX/1/1/gpx.xsd">
  <metadata>
    <name/>
    <time>2026-05-10T12:10:21+00:00</time>
    <bound minlat="90.0" minlon="180.0" maxlat="-90.0" maxlon="-180.0"/>
  </metadata>
  <trk>
    <name/>
    <trkseg>
      <trkpt lat="44.822615" lon="5.545771">
        <time>1970-01-01T00:00:00+00:00</time>
        <ele>1056.0</ele>
      </trkpt>
      <trkpt lat="44.823026" lon="5.544055">
        <time>1970-01-01T00:00:00+00:00</time>
        <ele>1077.0</ele>
      </trkpt>
      <trkpt lat="44.823787" lon="5.545685">
        <time>1970-01-01T00:00:00+00:00</time>
        <ele>1089.0</ele>
      </trkpt>
      <trkpt lat="44.824304" lon="5.545728">
        <time>1970-01-01T00:00:00+00:00</time>
        <ele>1112.0</ele>
      </trkpt>
      <trkpt lat="44.824913" lon="5.546222">
        <time>1970-01-01T00:00:00+00:00</time>
        <ele>1115.0</ele>
      </trkpt>
      <trkpt lat="44.825187" lon="5.545728">
        <time>1970-01-01T00:00:00+00:00</time>
        <ele>1131.0</ele>
      </trkpt>
      <trkpt lat="44.825811" lon="5.545235">
        <time>1970-01-01T00:00:00+00:00</time>
        <ele>1139.0</ele>
      </trkpt>
      <trkpt lat="44.826283" lon="5.543969">
        <time>1970-01-01T00:00:00+00:00</time>
        <ele>1157.0</ele>
      </trkpt>
      <trkpt lat="44.827546" lon="5.542789">
        <time>1970-01-01T00:00:00+00:00</time>
        <ele>1178.0</ele>
      </trkpt>
      <trkpt lat="44.827698" lon="5.541995">
        <time>1970-01-01T00:00:00+00:00</time>
        <ele>1189.0</ele>
      </trkpt>
      <trkpt lat="44.828216" lon="5.542488">
        <time>1970-01-01T00:00:00+00:00</time>
        <ele>1188.0</ele>
      </trkpt>
      <trkpt lat="44.828824" lon="5.542381">
        <time>1970-01-01T00:00:00+00:00</time>
        <ele>1203.0</ele>
      </trkpt>
      <trkpt lat="44.829342" lon="5.543111">
        <time>1970-01-01T00:00:00+00:00</time>
        <ele>1215.0</ele>
      </trkpt>
      <trkpt lat="44.829174" lon="5.542209">
        <time>1970-01-01T00:00:00+00:00</time>
        <ele>1216.0</ele>
      </trkpt>
      <trkpt lat="44.829874" lon="5.542574">
        <time>1970-01-01T00:00:00+00:00</time>
        <ele>1231.0</ele>
      </trkpt>
      <trkpt lat="44.829646" lon="5.541845">
        <time>1970-01-01T00:00:00+00:00</time>
        <ele>1241.0</ele>
      </trkpt>
      <trkpt lat="44.830042" lon="5.542102">
        <time>1970-01-01T00:00:00+00:00</time>
        <ele>1244.0</ele>
      </trkpt>
      <trkpt lat="44.82995" lon="5.541566">
        <time>1970-01-01T00:00:00+00:00</time>
        <ele>1260.0</ele>
      </trkpt>
      <trkpt lat="44.830422" lon="5.542166">
        <time>1970-01-01T00:00:00+00:00</time>
        <ele>1260.0</ele>
      </trkpt>
      <trkpt lat="44.831016" lon="5.542274">
        <time>1970-01-01T00:00:00+00:00</time>
        <ele>1299.0</ele>
      </trkpt>
      <trkpt lat="44.831183" lon="5.54296">
        <time>1970-01-01T00:00:00+00:00</time>
        <ele>1314.0</ele>
      </trkpt>
      <trkpt lat="44.830711" lon="5.543561">
        <time>1970-01-01T00:00:00+00:00</time>
        <ele>1309.0</ele>
      </trkpt>
      <trkpt lat="44.83062" lon="5.544849">
        <time>1970-01-01T00:00:00+00:00</time>
        <ele>1302.0</ele>
      </trkpt>
      <trkpt lat="44.831107" lon="5.543862">
        <time>1970-01-01T00:00:00+00:00</time>
        <ele>1344.0</ele>
      </trkpt>
      <trkpt lat="44.831761" lon="5.543668">
        <time>1970-01-01T00:00:00+00:00</time>
        <ele>1373.0</ele>
      </trkpt>
      <trkpt lat="44.832029" lon="5.542975">
        <time>1970-01-01T00:00:00+00:00</time>
        <ele>1369.0</ele>
      </trkpt>
      <trkpt lat="44.83317" lon="5.542031">
        <time>1970-01-01T00:00:00+00:00</time>
        <ele>1396.0</ele>
      </trkpt>
      <trkpt lat="44.833946" lon="5.541644">
        <time>1970-01-01T00:00:00+00:00</time>
        <ele>1434.0</ele>
      </trkpt>
      <trkpt lat="44.833946" lon="5.541172">
        <time>1970-01-01T00:00:00+00:00</time>
        <ele>1416.0</ele>
      </trkpt>
      <trkpt lat="44.835458" lon="5.540592">
        <time>1970-01-01T00:00:00+00:00</time>
        <ele>1456.0</ele>
      </trkpt>
      <trkpt lat="44.836371" lon="5.540077">
        <time>1970-01-01T00:00:00+00:00</time>
        <ele>1469.0</ele>
      </trkpt>
      <trkpt lat="44.835914" lon="5.540743">
        <time>1970-01-01T00:00:00+00:00</time>
        <ele>1478.0</ele>
      </trkpt>
      <trkpt lat="44.836538" lon="5.540485">
        <time>1970-01-01T00:00:00+00:00</time>
        <ele>1489.0</ele>
      </trkpt>
      <trkpt lat="44.836143" lon="5.541021">
        <time>1970-01-01T00:00:00+00:00</time>
        <ele>1495.0</ele>
      </trkpt>
      <trkpt lat="44.836995" lon="5.541">
        <time>1970-01-01T00:00:00+00:00</time>
        <ele>1521.0</ele>
      </trkpt>
      <trkpt lat="44.838106" lon="5.541751">
        <time>1970-01-01T00:00:00+00:00</time>
        <ele>1559.0</ele>
      </trkpt>
      <trkpt lat="44.838471" lon="5.541628">
        <time>1970-01-01T00:00:00+00:00</time>
        <ele>1558.0</ele>
      </trkpt>
      <trkpt lat="44.838182" lon="5.541928">
        <time>1970-01-01T00:00:00+00:00</time>
        <ele>1567.0</ele>
      </trkpt>
      <trkpt lat="44.83876" lon="5.542035">
        <time>1970-01-01T00:00:00+00:00</time>
        <ele>1576.0</ele>
      </trkpt>
      <trkpt lat="44.838532" lon="5.542422">
        <time>1970-01-01T00:00:00+00:00</time>
        <ele>1592.0</ele>
      </trkpt>
      <trkpt lat="44.838866" lon="5.542464">
        <time>1970-01-01T00:00:00+00:00</time>
        <ele>1594.0</ele>
      </trkpt>
      <trkpt lat="44.838623" lon="5.542851">
        <time>1970-01-01T00:00:00+00:00</time>
        <ele>1610.0</ele>
      </trkpt>
      <trkpt lat="44.839231" lon="5.542743">
        <time>1970-01-01T00:00:00+00:00</time>
        <ele>1607.0</ele>
      </trkpt>
      <trkpt lat="44.839445" lon="5.543173">
        <time>1970-01-01T00:00:00+00:00</time>
        <ele>1627.0</ele>
      </trkpt>
      <trkpt lat="44.839612" lon="5.542615">
        <time>1970-01-01T00:00:00+00:00</time>
        <ele>1619.0</ele>
      </trkpt>
      <trkpt lat="44.839779" lon="5.543323">
        <time>1970-01-01T00:00:00+00:00</time>
        <ele>1638.0</ele>
      </trkpt>
      <trkpt lat="44.839977" lon="5.54343">
        <time>1970-01-01T00:00:00+00:00</time>
        <ele>1646.0</ele>
      </trkpt>
      <trkpt lat="44.840068" lon="5.5424">
        <time>1970-01-01T00:00:00+00:00</time>
        <ele>1641.0</ele>
      </trkpt>
      <trkpt lat="44.840433" lon="5.543173">
        <time>1970-01-01T00:00:00+00:00</time>
        <ele>1657.0</ele>
      </trkpt>
      <trkpt lat="44.840738" lon="5.543602">
        <time>1970-01-01T00:00:00+00:00</time>
        <ele>1676.0</ele>
      </trkpt>
      <trkpt lat="44.840844" lon="5.544911">
        <time>1970-01-01T00:00:00+00:00</time>
        <ele>1706.0</ele>
      </trkpt>
      <trkpt lat="44.841879" lon="5.545447">
        <time>1970-01-01T00:00:00+00:00</time>
        <ele>1696.0</ele>
      </trkpt>
      <trkpt lat="44.843598" lon="5.545597">
        <time>1970-01-01T00:00:00+00:00</time>
        <ele>1651.0</ele>
      </trkpt>
      <trkpt lat="44.8427" lon="5.543967">
        <time>1970-01-01T00:00:00+00:00</time>
        <ele>1624.0</ele>
      </trkpt>
      <trkpt lat="44.842366" lon="5.542894">
        <time>1970-01-01T00:00:00+00:00</time>
        <ele>1614.0</ele>
      </trkpt>
      <trkpt lat="44.842244" lon="5.541156">
        <time>1970-01-01T00:00:00+00:00</time>
        <ele>1568.0</ele>
      </trkpt>
      <trkpt lat="44.842548" lon="5.540898">
        <time>1970-01-01T00:00:00+00:00</time>
        <ele>1544.0</ele>
      </trkpt>
      <trkpt lat="44.842229" lon="5.540254">
        <time>1970-01-01T00:00:00+00:00</time>
        <ele>1535.0</ele>
      </trkpt>
      <trkpt lat="44.842472" lon="5.539289">
        <time>1970-01-01T00:00:00+00:00</time>
        <ele>1524.0</ele>
      </trkpt>
      <trkpt lat="44.842868" lon="5.53989">
        <time>1970-01-01T00:00:00+00:00</time>
        <ele>1498.0</ele>
      </trkpt>
      <trkpt lat="44.843811" lon="5.539675">
        <time>1970-01-01T00:00:00+00:00</time>
        <ele>1461.0</ele>
      </trkpt>
      <trkpt lat="44.844039" lon="5.540319">
        <time>1970-01-01T00:00:00+00:00</time>
        <ele>1454.0</ele>
      </trkpt>
      <trkpt lat="44.844161" lon="5.541284">
        <time>1970-01-01T00:00:00+00:00</time>
        <ele>1448.0</ele>
      </trkpt>
      <trkpt lat="44.844511" lon="5.541713">
        <time>1970-01-01T00:00:00+00:00</time>
        <ele>1444.0</ele>
      </trkpt>
      <trkpt lat="44.844617" lon="5.542293">
        <time>1970-01-01T00:00:00+00:00</time>
        <ele>1460.0</ele>
      </trkpt>
      <trkpt lat="44.845363" lon="5.542872">
        <time>1970-01-01T00:00:00+00:00</time>
        <ele>1440.0</ele>
      </trkpt>
      <trkpt lat="44.846489" lon="5.543001">
        <time>1970-01-01T00:00:00+00:00</time>
        <ele>1386.0</ele>
      </trkpt>
      <trkpt lat="44.846823" lon="5.542336">
        <time>1970-01-01T00:00:00+00:00</time>
        <ele>1348.0</ele>
      </trkpt>
      <trkpt lat="44.847432" lon="5.542186">
        <time>1970-01-01T00:00:00+00:00</time>
        <ele>1330.0</ele>
      </trkpt>
      <trkpt lat="44.848147" lon="5.542679">
        <time>1970-01-01T00:00:00+00:00</time>
        <ele>1322.0</ele>
      </trkpt>
      <trkpt lat="44.84836" lon="5.543473">
        <time>1970-01-01T00:00:00+00:00</time>
        <ele>1323.0</ele>
      </trkpt>
      <trkpt lat="44.84941" lon="5.544439">
        <time>1970-01-01T00:00:00+00:00</time>
        <ele>1296.0</ele>
      </trkpt>
      <trkpt lat="44.850094" lon="5.545683">
        <time>1970-01-01T00:00:00+00:00</time>
        <ele>1279.0</ele>
      </trkpt>
      <trkpt lat="44.851129" lon="5.545833">
        <time>1970-01-01T00:00:00+00:00</time>
        <ele>1266.0</ele>
      </trkpt>
      <trkpt lat="44.851614" lon="5.546118">
        <time>1970-01-01T00:00:00+00:00</time>
        <ele>1265.0</ele>
      </trkpt>
      <trkpt lat="44.852694" lon="5.545968">
        <time>1970-01-01T00:00:00+00:00</time>
        <ele>1256.0</ele>
      </trkpt>
      <trkpt lat="44.853911" lon="5.546612">
        <time>1970-01-01T00:00:00+00:00</time>
        <ele>1241.0</ele>
      </trkpt>
      <trkpt lat="44.856041" lon="5.548736">
        <time>1970-01-01T00:00:00+00:00</time>
        <ele>1208.0</ele>
      </trkpt>
      <trkpt lat="44.856117" lon="5.551719">
        <time>1970-01-01T00:00:00+00:00</time>
        <ele>1192.0</ele>
      </trkpt>
      <trkpt lat="44.856071" lon="5.552212">
        <time>1970-01-01T00:00:00+00:00</time>
        <ele>1191.0</ele>
      </trkpt>
      <trkpt lat="44.856619" lon="5.553607">
        <time>1970-01-01T00:00:00+00:00</time>
        <ele>1177.0</ele>
      </trkpt>
      <trkpt lat="44.857303" lon="5.554551">
        <time>1970-01-01T00:00:00+00:00</time>
        <ele>1158.0</ele>
      </trkpt>
      <trkpt lat="44.857415" lon="5.555782">
        <time>1970-01-01T00:00:00+00:00</time>
        <ele>1147.0</ele>
      </trkpt>
      <trkpt lat="44.857948" lon="5.557005">
        <time>1970-01-01T00:00:00+00:00</time>
        <ele>1132.0</ele>
      </trkpt>
      <trkpt lat="44.858085" lon="5.557563">
        <time>1970-01-01T00:00:00+00:00</time>
        <ele>1121.0</ele>
      </trkpt>
      <trkpt lat="44.85848" lon="5.557456">
        <time>1970-01-01T00:00:00+00:00</time>
        <ele>1118.0</ele>
      </trkpt>
      <trkpt lat="44.8588" lon="5.556555">
        <time>1970-01-01T00:00:00+00:00</time>
        <ele>1122.0</ele>
      </trkpt>
      <trkpt lat="44.85918" lon="5.556748">
        <time>1970-01-01T00:00:00+00:00</time>
        <ele>1115.0</ele>
      </trkpt>
      <trkpt lat="44.859058" lon="5.557241">
        <time>1970-01-01T00:00:00+00:00</time>
        <ele>1112.0</ele>
      </trkpt>
      <trkpt lat="44.85953" lon="5.558529">
        <time>1970-01-01T00:00:00+00:00</time>
        <ele>1097.0</ele>
      </trkpt>
      <trkpt lat="44.860199" lon="5.559305">
        <time>1970-01-01T00:00:00+00:00</time>
        <ele>1089.0</ele>
      </trkpt>
      <trkpt lat="44.861309" lon="5.55952">
        <time>1970-01-01T00:00:00+00:00</time>
        <ele>1080.0</ele>
      </trkpt>
      <trkpt lat="44.860944" lon="5.560163">
        <time>1970-01-01T00:00:00+00:00</time>
        <ele>1088.0</ele>
      </trkpt>
      <trkpt lat="44.861552" lon="5.560743">
        <time>1970-01-01T00:00:00+00:00</time>
        <ele>1086.0</ele>
      </trkpt>
      <trkpt lat="44.862054" lon="5.561472">
        <time>1970-01-01T00:00:00+00:00</time>
        <ele>1091.0</ele>
      </trkpt>
      <trkpt lat="44.86175" lon="5.562202">
        <time>1970-01-01T00:00:00+00:00</time>
        <ele>1110.0</ele>
      </trkpt>
      <trkpt lat="44.861151" lon="5.56162">
        <time>1970-01-01T00:00:00+00:00</time>
        <ele>1118.0</ele>
      </trkpt>
      <trkpt lat="44.860452" lon="5.561256">
        <time>1970-01-01T00:00:00+00:00</time>
        <ele>1126.0</ele>
      </trkpt>
      <trkpt lat="44.860224" lon="5.5622">
        <time>1970-01-01T00:00:00+00:00</time>
        <ele>1153.0</ele>
      </trkpt>
      <trkpt lat="44.8589" lon="5.562371">
        <time>1970-01-01T00:00:00+00:00</time>
        <ele>1183.0</ele>
      </trkpt>
      <trkpt lat="44.858094" lon="5.56308">
        <time>1970-01-01T00:00:00+00:00</time>
        <ele>1208.0</ele>
      </trkpt>
      <trkpt lat="44.85814" lon="5.563723">
        <time>1970-01-01T00:00:00+00:00</time>
        <ele>1211.0</ele>
      </trkpt>
      <trkpt lat="44.856299" lon="5.565676">
        <time>1970-01-01T00:00:00+00:00</time>
        <ele>1240.0</ele>
      </trkpt>
      <trkpt lat="44.855645" lon="5.566706">
        <time>1970-01-01T00:00:00+00:00</time>
        <ele>1271.0</ele>
      </trkpt>
      <trkpt lat="44.855782" lon="5.568422">
        <time>1970-01-01T00:00:00+00:00</time>
        <ele>1309.0</ele>
      </trkpt>
      <trkpt lat="44.856071" lon="5.568809">
        <time>1970-01-01T00:00:00+00:00</time>
        <ele>1312.0</ele>
      </trkpt>
      <trkpt lat="44.855615" lon="5.569023">
        <time>1970-01-01T00:00:00+00:00</time>
        <ele>1307.0</ele>
      </trkpt>
      <trkpt lat="44.856497" lon="5.569474">
        <time>1970-01-01T00:00:00+00:00</time>
        <ele>1310.0</ele>
      </trkpt>
      <trkpt lat="44.856908" lon="5.57044">
        <time>1970-01-01T00:00:00+00:00</time>
        <ele>1298.0</ele>
      </trkpt>
      <trkpt lat="44.857471" lon="5.57104">
        <time>1970-01-01T00:00:00+00:00</time>
        <ele>1303.0</ele>
      </trkpt>
      <trkpt lat="44.858079" lon="5.572457">
        <time>1970-01-01T00:00:00+00:00</time>
        <ele>1296.0</ele>
      </trkpt>
      <trkpt lat="44.857866" lon="5.57501">
        <time>1970-01-01T00:00:00+00:00</time>
        <ele>1287.0</ele>
      </trkpt>
      <trkpt lat="44.857996" lon="5.577018">
        <time>1970-01-01T00:00:00+00:00</time>
        <ele>1276.0</ele>
      </trkpt>
      <trkpt lat="44.857768" lon="5.579593">
        <time>1970-01-01T00:00:00+00:00</time>
        <ele>1265.0</ele>
      </trkpt>
      <trkpt lat="44.857875" lon="5.580505">
        <time>1970-01-01T00:00:00+00:00</time>
        <ele>1257.0</ele>
      </trkpt>
      <trkpt lat="44.857783" lon="5.581256">
        <time>1970-01-01T00:00:00+00:00</time>
        <ele>1252.0</ele>
      </trkpt>
      <trkpt lat="44.857821" lon="5.582393">
        <time>1970-01-01T00:00:00+00:00</time>
        <ele>1244.0</ele>
      </trkpt>
      <trkpt lat="44.85738" lon="5.583831">
        <time>1970-01-01T00:00:00+00:00</time>
        <ele>1241.0</ele>
      </trkpt>
      <trkpt lat="44.857175" lon="5.584088">
        <time>1970-01-01T00:00:00+00:00</time>
        <ele>1241.0</ele>
      </trkpt>
      <trkpt lat="44.857099" lon="5.583863">
        <time>1970-01-01T00:00:00+00:00</time>
        <ele>1233.0</ele>
      </trkpt>
      <trkpt lat="44.856649" lon="5.583851">
        <time>1970-01-01T00:00:00+00:00</time>
        <ele>1220.0</ele>
      </trkpt>
      <trkpt lat="44.856208" lon="5.58428">
        <time>1970-01-01T00:00:00+00:00</time>
        <ele>1221.0</ele>
      </trkpt>
      <trkpt lat="44.855174" lon="5.583486">
        <time>1970-01-01T00:00:00+00:00</time>
        <ele>1184.0</ele>
      </trkpt>
      <trkpt lat="44.854079" lon="5.583378">
        <time>1970-01-01T00:00:00+00:00</time>
        <ele>1173.0</ele>
      </trkpt>
      <trkpt lat="44.853151" lon="5.582713">
        <time>1970-01-01T00:00:00+00:00</time>
        <ele>1153.0</ele>
      </trkpt>
      <trkpt lat="44.852892" lon="5.582606">
        <time>1970-01-01T00:00:00+00:00</time>
        <ele>1151.0</ele>
      </trkpt>
      <trkpt lat="44.852664" lon="5.58207">
        <time>1970-01-01T00:00:00+00:00</time>
        <ele>1140.0</ele>
      </trkpt>
      <trkpt lat="44.851371" lon="5.581941">
        <time>1970-01-01T00:00:00+00:00</time>
        <ele>1113.0</ele>
      </trkpt>
      <trkpt lat="44.851082" lon="5.581276">
        <time>1970-01-01T00:00:00+00:00</time>
        <ele>1096.0</ele>
      </trkpt>
      <trkpt lat="44.850063" lon="5.580675">
        <time>1970-01-01T00:00:00+00:00</time>
        <ele>1071.0</ele>
      </trkpt>
      <trkpt lat="44.849774" lon="5.58031">
        <time>1970-01-01T00:00:00+00:00</time>
        <ele>1061.0</ele>
      </trkpt>
      <trkpt lat="44.848435" lon="5.580074">
        <time>1970-01-01T00:00:00+00:00</time>
        <ele>1040.0</ele>
      </trkpt>
      <trkpt lat="44.848054" lon="5.579602">
        <time>1970-01-01T00:00:00+00:00</time>
        <ele>1031.0</ele>
      </trkpt>
      <trkpt lat="44.846518" lon="5.580031">
        <time>1970-01-01T00:00:00+00:00</time>
        <ele>1022.0</ele>
      </trkpt>
      <trkpt lat="44.84629" lon="5.579516">
        <time>1970-01-01T00:00:00+00:00</time>
        <ele>1020.0</ele>
      </trkpt>
      <trkpt lat="44.845483" lon="5.579516">
        <time>1970-01-01T00:00:00+00:00</time>
        <ele>1016.0</ele>
      </trkpt>
      <trkpt lat="44.84527" lon="5.58016">
        <time>1970-01-01T00:00:00+00:00</time>
        <ele>1012.0</ele>
      </trkpt>
      <trkpt lat="44.844571" lon="5.580053">
        <time>1970-01-01T00:00:00+00:00</time>
        <ele>1009.0</ele>
      </trkpt>
      <trkpt lat="44.84384" lon="5.58061">
        <time>1970-01-01T00:00:00+00:00</time>
        <ele>1006.0</ele>
      </trkpt>
      <trkpt lat="44.843262" lon="5.580568">
        <time>1970-01-01T00:00:00+00:00</time>
        <ele>1011.0</ele>
      </trkpt>
      <trkpt lat="44.842471" lon="5.580932">
        <time>1970-01-01T00:00:00+00:00</time>
        <ele>1010.0</ele>
      </trkpt>
      <trkpt lat="44.840889" lon="5.580181">
        <time>1970-01-01T00:00:00+00:00</time>
        <ele>1019.0</ele>
      </trkpt>
      <trkpt lat="44.840049" lon="5.579429">
        <time>1970-01-01T00:00:00+00:00</time>
        <ele>1020.0</ele>
      </trkpt>
      <trkpt lat="44.838193" lon="5.5787">
        <time>1970-01-01T00:00:00+00:00</time>
        <ele>1023.0</ele>
      </trkpt>
      <trkpt lat="44.837478" lon="5.579107">
        <time>1970-01-01T00:00:00+00:00</time>
        <ele>1024.0</ele>
      </trkpt>
      <trkpt lat="44.836854" lon="5.579815">
        <time>1970-01-01T00:00:00+00:00</time>
        <ele>1019.0</ele>
      </trkpt>
      <trkpt lat="44.835956" lon="5.580116">
        <time>1970-01-01T00:00:00+00:00</time>
        <ele>1012.0</ele>
      </trkpt>
      <trkpt lat="44.835195" lon="5.580738">
        <time>1970-01-01T00:00:00+00:00</time>
        <ele>1000.0</ele>
      </trkpt>
      <trkpt lat="44.83448" lon="5.579858">
        <time>1970-01-01T00:00:00+00:00</time>
        <ele>989.0</ele>
      </trkpt>
      <trkpt lat="44.833643" lon="5.579472">
        <time>1970-01-01T00:00:00+00:00</time>
        <ele>970.0</ele>
      </trkpt>
      <trkpt lat="44.833506" lon="5.57915">
        <time>1970-01-01T00:00:00+00:00</time>
        <ele>972.0</ele>
      </trkpt>
      <trkpt lat="44.833035" lon="5.579043">
        <time>1970-01-01T00:00:00+00:00</time>
        <ele>973.0</ele>
      </trkpt>
      <trkpt lat="44.832396" lon="5.579708">
        <time>1970-01-01T00:00:00+00:00</time>
        <ele>976.0</ele>
      </trkpt>
      <trkpt lat="44.831635" lon="5.579322">
        <time>1970-01-01T00:00:00+00:00</time>
        <ele>978.0</ele>
      </trkpt>
      <trkpt lat="44.830463" lon="5.577584">
        <time>1970-01-01T00:00:00+00:00</time>
        <ele>976.0</ele>
      </trkpt>
      <trkpt lat="44.827617" lon="5.575545">
        <time>1970-01-01T00:00:00+00:00</time>
        <ele>989.0</ele>
      </trkpt>
      <trkpt lat="44.827069" lon="5.574708">
        <time>1970-01-01T00:00:00+00:00</time>
        <ele>1001.0</ele>
      </trkpt>
      <trkpt lat="44.82745" lon="5.574172">
        <time>1970-01-01T00:00:00+00:00</time>
        <ele>1001.0</ele>
      </trkpt>
      <trkpt lat="44.828058" lon="5.573571">
        <time>1970-01-01T00:00:00+00:00</time>
        <ele>1007.0</ele>
      </trkpt>
      <trkpt lat="44.828161" lon="5.572537">
        <time>1970-01-01T00:00:00+00:00</time>
        <ele>1015.0</ele>
      </trkpt>
      <trkpt lat="44.828039" lon="5.571764">
        <time>1970-01-01T00:00:00+00:00</time>
        <ele>1018.0</ele>
      </trkpt>
      <trkpt lat="44.828343" lon="5.571035">
        <time>1970-01-01T00:00:00+00:00</time>
        <ele>1018.0</ele>
      </trkpt>
      <trkpt lat="44.82813" lon="5.569018">
        <time>1970-01-01T00:00:00+00:00</time>
        <ele>1028.0</ele>
      </trkpt>
      <trkpt lat="44.828161" lon="5.566014">
        <time>1970-01-01T00:00:00+00:00</time>
        <ele>1032.0</ele>
      </trkpt>
      <trkpt lat="44.826974" lon="5.563739">
        <time>1970-01-01T00:00:00+00:00</time>
        <ele>1044.0</ele>
      </trkpt>
      <trkpt lat="44.826943" lon="5.562623">
        <time>1970-01-01T00:00:00+00:00</time>
        <ele>1052.0</ele>
      </trkpt>
      <trkpt lat="44.825482" lon="5.562752">
        <time>1970-01-01T00:00:00+00:00</time>
        <ele>1007.0</ele>
      </trkpt>
      <trkpt lat="44.824478" lon="5.56095">
        <time>1970-01-01T00:00:00+00:00</time>
        <ele>1011.0</ele>
      </trkpt>
      <trkpt lat="44.823504" lon="5.559877">
        <time>1970-01-01T00:00:00+00:00</time>
        <ele>1005.0</ele>
      </trkpt>
      <trkpt lat="44.822804" lon="5.558761">
        <time>1970-01-01T00:00:00+00:00</time>
        <ele>1002.0</ele>
      </trkpt>
      <trkpt lat="44.822834" lon="5.553439">
        <time>1970-01-01T00:00:00+00:00</time>
        <ele>1020.0</ele>
      </trkpt>
      <trkpt lat="44.822104" lon="5.549749">
        <time>1970-01-01T00:00:00+00:00</time>
        <ele>1033.0</ele>
      </trkpt>
      <trkpt lat="44.822682" lon="5.548805">
        <time>1970-01-01T00:00:00+00:00</time>
        <ele>1045.0</ele>
      </trkpt>
      <trkpt lat="44.822591" lon="5.546959">
        <time>1970-01-01T00:00:00+00:00</time>
        <ele>1054.0</ele>
      </trkpt>
    </trkseg>
  </trk>
</gpx>
